User: anonymous   Login
Location: Blanot
(47.1713°N, 4.2340°E)
Time: 09:42:23
(UTC+00:00)
Language:

Cosmos 1190 Rocket - Orbit

View from above orbital plane
View from above orbital plane
View from above satellite
View from above satellite

Ground track
Ground track

The orbit data is extracted from the following two-line orbital elements,

1 11870U 80056B   20269.87613147 +.00000012 +00000-0 +12875-4 0  9992
2 11870 074.0543 169.8233 0016564 189.0110 171.0749 14.36981934082834
Epoch (UTC): 25 September 2020 21:01:37
Eccentricity: 0.0016564
inclination: 74.0543°
perigee height: 756 km
apogee height: 780 km
right ascension of ascending node: 169.8233°
argument of perigee: 189.0110°
revolutions per day: 14.36981934
mean anomaly at epoch: 171.0749°
orbit number at epoch: 8283

The dashed part of the orbit path shows where the satellite is in the earth's shadow,  

DLR